TimeEST,TemperatureF,Dew PointF,Humidity,Sea Level PressureIn,VisibilityMPH,Wind Direction,Wind SpeedMPH,Gust SpeedMPH,PrecipitationIn,Events,Conditions,WindDirDegrees,DateUTC
12:51 AM,20.1,17.1,88,30.97,10.0,Calm,Calm,-,N/A,,Clear,0,2013-12-28 05:51:00
1:51 AM,17.1,16.2,96,30.96,10.0,Calm,Calm,-,N/A,,Clear,0,2013-12-28 06:51:00
2:51 AM,17.1,15.1,92,30.96,10.0,Calm,Calm,-,N/A,,Clear,0,2013-12-28 07:51:00
3:51 AM,22.1,18.1,85,30.94,10.0,Calm,Calm,-,N/A,,Clear,0,2013-12-28 08:51:00
4:51 AM,16.2,14.0,91,30.93,10.0,Calm,Calm,-,N/A,,Clear,0,2013-12-28 09:51:00
5:51 AM,16.2,14.0,91,30.91,10.0,Calm,Calm,-,N/A,,Clear,0,2013-12-28 10:51:00
6:51 AM,19.0,17.1,92,30.88,10.0,Calm,Calm,-,N/A,,Clear,0,2013-12-28 11:51:00
7:51 AM,22.1,20.1,92,30.88,10.0,Calm,Calm,-,N/A,,Clear,0,2013-12-28 12:51:00
8:51 AM,26.1,22.1,85,30.87,10.0,Calm,Calm,-,N/A,,Clear,0,2013-12-28 13:51:00
9:51 AM,32.9,23.0,67,30.85,10.0,Variable,3.5,-,N/A,,Clear,0,2013-12-28 14:51:00
10:51 AM,36.9,23.0,57,30.82,10.0,West,8.1,-,N/A,,Mostly Cloudy,260,2013-12-28 15:51:00
11:51 AM,39.9,23.0,51,30.79,10.0,Variable,4.6,-,0.01,,Clear,0,2013-12-28 16:51:00
12:51 PM,43.9,24.1,46,30.77,10.0,Variable,5.8,-,0.01,,Scattered Clouds,0,2013-12-28 17:51:00
1:51 PM,45.9,25.2,44,30.75,10.0,NW,10.4,18.4,N/A,,Scattered Clouds,310,2013-12-28 18:51:00
2:51 PM,45.9,26.1,46,30.75,10.0,West,11.5,-,N/A,,Scattered Clouds,270,2013-12-28 19:51:00
3:51 PM,45.0,27.1,50,30.76,10.0,Variable,5.8,-,N/A,,Scattered Clouds,0,2013-12-28 20:51:00
4:51 PM,41.9,27.1,56,30.79,10.0,West,6.9,-,N/A,,Mostly Cloudy,270,2013-12-28 21:51:00
5:51 PM,41.9,27.1,56,30.81,10.0,West,6.9,-,N/A,,Mostly Cloudy,260,2013-12-28 22:51:00
6:51 PM,36.0,27.1,70,30.81,10.0,Calm,Calm,-,N/A,,Clear,0,2013-12-28 23:51:00
7:51 PM,36.9,27.1,68,30.84,10.0,Variable,4.6,-,N/A,,Clear,0,2013-12-29 00:51:00
8:51 PM,31.1,27.1,85,30.84,10.0,Calm,Calm,-,N/A,,Clear,0,2013-12-29 01:51:00
9:51 PM,29.1,26.1,88,30.81,10.0,Calm,Calm,-,N/A,,Clear,0,2013-12-29 02:51:00
10:51 PM,28.0,26.1,92,30.80,10.0,Calm,Calm,-,N/A,,Clear,0,2013-12-29 03:51:00
11:51 PM,27.1,24.1,88,30.78,10.0,Calm,Calm,-,N/A,,Clear,0,2013-12-29 04:51:00